sat.trackr.live / text

‹ back to catalog

IRIDE-MS2-HEO-9

NORAD 64585 · 2025-135BK

PAYLOAD ACTIVE UNKNOWN

§ Identity

Operator
Country
IT
Launch date
2025-06-23
Launch site
AFWTR
Launch vehicle
Mass (kg)
RCS (m²)

External: N2YO · Heavens-Above · Gunter

§ Orbital elements

Epoch: 2026-09-21T22:32:17.784672Z

Period
96.52 min
Inclination
97.7841°
Eccentricity
0.0002102
Mean motion
14.91960254 rev/d
Perigee alt
590.4 km
Apogee alt
593.3 km
Semi-major
6,970.0 km
B*
1.2161e-4
RAAN
18.2240°
Arg perigee
74.3130°
Mean anomaly
285.8321°
Rev number
6,832

§ Raw data

IRIDE-MS2-HEO-91 64585U 25135BK  26264.93909473  .00001175  00000+0  12161-3 0  99952 64585  97.7841  18.2240 0002102  74.3130 285.8321 14.91960254 68325

JSON: /api/v1/satellites/64585 · /tle

For live sub-satellite position, see the globe view (requires WebGL).

§ Visibility from observer

Set your observer location to see the next 7 days of passes ≥ 10°. The values pass through the URL so the page stays shareable.

No JS? Fill the form by hand. The geolocation button needs JavaScript.

§ Radio — SatNOGS DB

ModeDescriptionDownlinkUplink
FM Mode S - Transmitter 2.264 GHz

1 transmitter · refreshed weekly from db.satnogs.org